[[{"header":{"parameterUnit":"m.s-1","parameterCategory":1,"la1":30.2991,"la2":30.254,"lo1":-89.0895,"lo2":-89.0444,"dy":0.0017,"dx":0.0017,"nx":28,"ny":28,"refTime":"2023-09-27T21:00:00:Z","depth":0,"parameterNumber":2,"parameterNumberName":"U-component_of_WINDS"},"data":[0,0,0,0,0,0,0,0,0,0,0,0,0,0,0,0,0,0,0,0,0,0,0,0,0,0,0,0,0,0,0,0,0,0,0,0,0,0,0,0,0,0,0,0,0,0,0,0,0,0,0,0,0,0,0,0,0,0,-3.1119,-3.112,0,-3.118,-3.118,-3.1181,-3.1164,-3.1163,-3.1161,-3.116,-3.1228,-3.123,-3.1233,0,0,0,0,0,0,0,0,0,0,0,0,0,-3.0996,-3.0998,-3.1119,-3.112,-3.1121,-3.118,-3.118,-3.1181,-3.1164,-3.1163,-3.1161,-3.116,-3.1227,-3.123,-3.1234,0,0,0,0,0,0,0,0,0,0,0,0,0,-3.1052,-3.0999,-3.1119,-3.1119,-3.112,-3.1179,-3.118,-3.1181,-3.1164,-3.1163,-3.1161,-3.1159,-3.1225,-3.123,-3.1234,-3.1299,0,0,-3.1248,-3.125,0,0,0,0,0,0,0,0,-3.1049,-3.1057,-3.1118,-3.1119,-3.112,-3.1162,-3.1162,-3.1221,-3.1165,-3.1148,-3.116,-3.1158,-3.1208,-3.1213,-3.1229,-3.1302,-3.1305,-3.1248,-3.1251,-3.1253,-3.1254,0,0,0,0,0,0,0,-3.1045,-3.1054,-3.1143,-3.1119,-3.112,-3.1118,-3.1124,-3.1173,-3.1188,-3.1149,-3.1148,-3.1155,-3.1208,-3.1225,-3.1231,-3.1306,-3.1248,-3.1252,-3.1255,-3.1256,-3.144,-3.1442,0,0,0,0,0,0,-3.104,-3.1051,-3.1141,-3.1145,-3.1079,-3.1122,-3.1129,-3.1151,-3.1187,-3.1191,-3.1157,-3.1154,-3.1218,-3.1225,-3.1233,-3.1314,-3.1253,-3.1257,-3.1259,-3.1438,-3.1441,-3.1443,0,0,0,0,0,0,-3.1037,-3.1048,-3.1139,-3.1098,-3.1109,-3.1126,-3.1151,-3.1153,-3.117,-3.1193,-3.1196,-3.1171,-3.1217,-3.1227,-3.1283,-3.1316,-3.1259,-3.1263,-3.1435,-3.1439,-3.1442,-3.1475,0,0,0,0,0,0,-3.1034,-3.1047,-3.107,-3.1098,-3.1111,-3.1186,-3.1153,-3.1155,-3.1177,-3.1174,-3.1207,-3.1211,-3.1216,-3.1277,-3.1288,-3.1321,-3.1266,-3.1432,-3.1437,-3.1441,-3.1472,-3.148,-3.1486,0,0,0,0,0,-3.1029,-3.1078,-3.1071,-3.1082,-3.114,-3.1188,-3.1196,-3.12,-3.1179,-3.1204,-3.122,-3.121,-3.131,-3.1283,-3.1295,-3.133,-3.143,-3.1436,-3.144,-3.1468,-3.1478,-3.1486,0,0,0,0,0,0,-3.1054,-3.1081,-3.1075,-3.1133,-3.1158,-3.1185,-3.1216,-3.1209,-3.1242,-3.1238,-3.1244,-3.1252,-3.131,-3.1326,-3.1294,-3.1397,-3.1368,-3.1376,-3.1385,-3.1394,-3.1402,-3.1398,-3.127,0,0,0,0,0,-3.1066,-3.11,-3.1123,-3.1172,-3.1185,-3.1199,-3.1219,-3.1221,-3.1248,-3.1259,-3.1278,-3.1307,-3.1345,-3.137,-3.1407,-3.1473,-3.1483,-3.1504,-3.1512,-3.1518,-3.1525,-3.1565,-3.1576,-3.1459,-3.1459,-3.1459,0,0,-3.1091,-3.111,-3.1132,-3.1178,-3.1198,-3.1236,-3.1208,-3.1248,-3.1278,-3.1266,-3.1321,-3.1336,-3.1368,-3.1431,-3.146,-3.1446,-3.1559,-3.1524,-3.1528,-3.1533,-3.1572,-3.1583,-3.1593,-3.1463,-3.1462,-3.1462,0,0,-3.1158,-3.1174,-3.1219,-3.1239,-3.1269,-3.1278,-3.1289,-3.1317,-3.1327,-3.1382,-3.1374,-3.1411,-3.1475,-3.15,-3.1521,-3.16,-3.1594,-3.1612,-3.1651,-3.1691,-3.17,-3.1708,-3.174,-3.1751,-3.1619,-3.1619,-3.1619,0,-3.1186,-3.1241,-3.1243,-3.1285,-3.1307,-3.1297,-3.1344,-3.1364,-3.1405,-3.1422,-3.1405,-3.1489,-3.151,-3.158,-3.16,-3.1616,-3.1631,-3.1609,-3.1698,-3.1706,-3.1714,-3.1745,-3.1756,-3.1621,-3.1621,-3.162,-3.162,0,-3.1277,-3.1316,-3.1348,-3.1388,-3.1413,-3.1457,-3.1468,-3.1495,-3.1494,-3.1506,-3.1564,-3.1589,-3.1632,-3.1648,-3.1648,-3.172,-3.1711,-3.1696,-3.1667,-3.1728,-3.1756,-3.1768,-3.1624,-3.1623,-3.1623,-3.1622,0,0,-3.136,-3.14,-3.1413,-3.1432,-3.1465,-3.1497,-3.1542,-3.1583,-3.1607,-3.1636,-3.1677,-3.1734,-3.1721,-3.1745,-3.1748,-3.1782,-3.1848,-3.1764,-3.1765,-3.1781,-3.1933,-3.1946,-3.1959,-3.1843,-3.1845,-3.1847,-3.1931,0,-3.1431,-3.151,-3.1514,-3.1586,-3.1624,-3.1616,-3.1656,-3.1683,-3.1696,-3.1732,-3.1747,-3.1788,-3.1766,-3.1781,-3.1815,-3.1833,-3.1879,-3.1826,-3.1885,-3.1887,-3.1879,-3.1973,-3.1986,-3.2064,-3.1942,-3.1944,-3.1945,0,-3.1525,-3.1557,-3.1633,-3.1664,-3.168,-3.1716,-3.1755,-3.1789,-3.182,-3.1828,-3.1856,-3.1854,-3.1905,-3.1873,-3.1945,-3.1909,-3.1933,-3.1946,-3.195,-3.1957,-3.1921,-3.1986,-3.2089,-3.2102,-3.1962,-3.1961,-3.196,0,-3.1582,-3.1644,-3.1698,-3.1714,-3.1751,-3.1777,-3.1794,-3.1823,-3.1849,-3.1884,-3.1901,-3.1942,-3.1966,-3.1999,-3.2011,-3.1986,-3.2084,-3.2051,-3.2094,-3.2094,-3.2116,-3.2115,-3.2228,-3.2128,-3.2128,-3.2127,-3.2127,0,-3.1663,-3.171,-3.1725,-3.1758,-3.1813,-3.1818,-3.1873,-3.1888,-3.1915,-3.1954,-3.1949,-3.1987,-3.1998,-3.2039,-3.2048,-3.2109,-3.2118,-3.2128,-3.2131,-3.213,-3.2129,-3.2148,-3.2144,-3.213,-3.213,-3.2129,-3.2129,0,-3.1736,-3.1747,-3.1806,-3.1836,-3.1845,-3.1884,-3.1911,-3.1946,-3.1958,-3.2008,-3.202,-3.204,-3.2088,-3.2102,-3.216,-3.2166,-3.2238,-3.2234,-3.2227,-3.2228,-3.2271,-3.2268,-3.2401,-3.2421,-3.2305,-3.2306,-3.2307,0,-3.1788,-3.1824,-3.1859,-3.1884,-3.1902,-3.1942,-3.1968,-3.1975,-3.2003,-3.2044,-3.2074,-3.2121,-3.2158,-3.2236,-3.2258,-3.2303,-3.2302,-3.2345,-3.2309,-3.2308,-3.2307,-3.2305,-3.2311,-3.2353,-3.2354,-3.2355,-3.2356,0,-3.188,-3.1884,-3.1921,-3.196,-3.1991,-3.2023,-3.2054,-3.2075,-3.2088,-3.212,-3.2168,-3.2197,-3.2257,-3.2305,-3.2351,-3.2371,-3.2368,-3.2367,-3.238,-3.2381,-3.2377,-3.2383,-3.2249,-3.2365,-3.2364,-3.2363,-3.2363,-3.2362,-3.1946,-3.198,-3.201,-3.2052,-3.2076,-3.2105,-3.214,-3.2157,-3.2196,-3.2244,-3.2246,-3.23,-3.2334,-3.2395,-3.2419,-3.2462,-3.245,-3.2468,-3.2473,-3.2478,-3.2483,-3.2368,-3.2471,-3.247,-3.247,-3.247,-3.247,0,-3.2041,-3.206,-3.2099,-3.2142,-3.2176,-3.2167,-3.2201,-3.2232,-3.2278,-3.2309,-3.2346,-3.2404,-3.2451,-3.2477,-3.2525,-3.2556,-3.2555,-3.2568,-3.2568,-3.2573,-3.249,-3.2475,-3.2568,-3.2568,-3.2568,-3.2568,-3.2568,-3.2568,-3.2095,-3.2152,-3.216,-3.223,-3.225,-3.2301,-3.2322,-3.235,-3.2376,-3.2439,-3.2478,-3.2494,-3.2525,-3.2575,-3.2619,-3.2626,-3.2646,-3.2661,-3.2667,-3.2588,-3.2579,-3.2569,-3.2556,-3.2664,-3.2664,-3.2747,-3.2748,-3.2748]},{"header":{"parameterUnit":"m.s-1","parameterCategory":1,"la1":30.2991,"la2":30.254,"lo1":-89.0895,"lo2":-89.0444,"dy":0.0017,"dx":0.0017,"nx":28,"ny":28,"refTime":"2023-09-27T21:00:00:Z","depth":0,"parameterNumber":3,"parameterNumberName":"V-component_of_WINDS"},"data":[0,0,0,0,0,0,0,0,0,0,0,0,0,0,0,0,0,0,0,0,0,0,0,0,0,0,0,0,0,0,0,0,0,0,0,0,0,0,0,0,0,0,0,0,0,0,0,0,0,0,0,0,0,0,0,0,0,0,0.3975,0.3974,0,0.3892,0.3891,0.389,0.3853,0.3853,0.3853,0.3853,0.3763,0.376,0.3758,0,0,0,0,0,0,0,0,0,0,0,0,0,0.4096,0.4094,0.3975,0.3974,0.3973,0.3892,0.3891,0.3889,0.3853,0.3853,0.3853,0.3853,0.3764,0.3761,0.3758,0,0,0,0,0,0,0,0,0,0,0,0,0,0.4031,0.4093,0.3975,0.3945,0.3941,0.3892,0.3891,0.3889,0.3853,0.3853,0.3853,0.3853,0.3765,0.3761,0.3757,0.373,0,0,0.3746,0.3744,0,0,0,0,0,0,0,0,0.4035,0.4027,0.395,0.3947,0.3943,0.3883,0.39,0.3836,0.3853,0.3886,0.3853,0.3853,0.3802,0.3795,0.3779,0.3726,0.3722,0.3745,0.3743,0.3742,0.374,0,0,0,0,0,0,0,0.4039,0.403,0.3942,0.3949,0.3945,0.3933,0.3924,0.3888,0.3844,0.3883,0.388,0.3871,0.38,0.3783,0.3777,0.3721,0.3746,0.3742,0.374,0.3738,0.3637,0.3636,0,0,0,0,0,0,0.405,0.4034,0.3945,0.3939,0.399,0.3931,0.3921,0.3902,0.3844,0.3836,0.3871,0.387,0.3789,0.3781,0.3774,0.3735,0.3742,0.3738,0.3736,0.3637,0.3636,0.3636,0,0,0,0,0,0,0.4052,0.4042,0.3948,0.3986,0.3973,0.3929,0.3908,0.39,0.3883,0.3835,0.3827,0.3862,0.3789,0.3779,0.3741,0.3732,0.3736,0.3733,0.3638,0.3637,0.3636,0.3661,0,0,0,0,0,0,0.4056,0.4043,0.4034,0.3986,0.3971,0.3919,0.3907,0.3898,0.3877,0.3874,0.3824,0.3816,0.3789,0.3746,0.3737,0.3727,0.373,0.3638,0.3637,0.3636,0.366,0.3661,0.3661,0,0,0,0,0,0.406,0.4044,0.4034,0.4024,0.3959,0.3918,0.391,0.3879,0.3877,0.3866,0.3835,0.3818,0.3735,0.3743,0.3732,0.372,0.3638,0.3637,0.3636,0.366,0.3661,0.3661,0,0,0,0,0,0,0.4092,0.4038,0.4026,0.3994,0.3961,0.3912,0.3898,0.3882,0.3848,0.3847,0.3809,0.3798,0.3762,0.3737,0.3748,0.3689,0.3685,0.3681,0.3706,0.3707,0.3707,0.3713,0.3727,0,0,0,0,0,0.4096,0.4069,0.4022,0.3998,0.3982,0.3943,0.3924,0.3903,0.3867,0.3853,0.3819,0.3783,0.3748,0.3726,0.3692,0.3657,0.3643,0.3643,0.3643,0.3644,0.3641,0.3617,0.3615,0.3633,0.3633,0.3633,0,0,0.4103,0.4069,0.4055,0.4004,0.3976,0.3946,0.3932,0.3902,0.3879,0.3848,0.3809,0.3783,0.374,0.3702,0.3684,0.368,0.3633,0.3643,0.3643,0.364,0.3615,0.3614,0.3612,0.3632,0.3632,0.3632,0,0,0.4099,0.4073,0.4049,0.4021,0.3979,0.3952,0.3946,0.3899,0.388,0.3842,0.3817,0.3787,0.3729,0.3699,0.3676,0.3657,0.3639,0.3647,0.3648,0.3625,0.3624,0.3622,0.3613,0.361,0.3644,0.3644,0.3644,0,0.4113,0.4069,0.4038,0.4009,0.3985,0.3957,0.393,0.3904,0.3852,0.3836,0.3833,0.3757,0.3726,0.3679,0.3674,0.3658,0.3647,0.3652,0.3627,0.3625,0.3623,0.3613,0.361,0.3645,0.3645,0.3645,0.3645,0,0.4086,0.4055,0.404,0.3992,0.3967,0.3939,0.3901,0.3879,0.386,0.3833,0.3791,0.3753,0.3709,0.3696,0.3677,0.3645,0.3644,0.3635,0.3629,0.3623,0.3613,0.3609,0.3647,0.3646,0.3646,0.3646,0,0,0.4102,0.4034,0.4029,0.4005,0.3955,0.393,0.3899,0.3857,0.3837,0.3802,0.3773,0.3723,0.3713,0.3686,0.3663,0.3643,0.3626,0.3635,0.3633,0.3633,0.3584,0.359,0.3587,0.3614,0.3614,0.3613,0.3587,0,0.409,0.4035,0.4005,0.3962,0.3931,0.3902,0.3874,0.3839,0.3812,0.378,0.3749,0.3714,0.3705,0.3688,0.3667,0.3633,0.3616,0.3635,0.3584,0.3583,0.3594,0.3582,0.3589,0.3567,0.3583,0.3583,0.3582,0,0.407,0.4034,0.3989,0.3939,0.3925,0.3901,0.3858,0.3829,0.3786,0.3768,0.3737,0.3713,0.3676,0.3674,0.3621,0.3634,0.3611,0.3591,0.3589,0.3582,0.3581,0.3573,0.356,0.3555,0.3576,0.3577,0.3577,0,0.4083,0.4024,0.3988,0.3968,0.391,0.3894,0.3868,0.3826,0.3802,0.3763,0.3746,0.3703,0.3679,0.3645,0.3609,0.3612,0.3558,0.3554,0.3538,0.3539,0.3528,0.3529,0.3509,0.3516,0.3516,0.3517,0.3517,0,0.4072,0.4044,0.3993,0.397,0.3937,0.3901,0.3868,0.384,0.3803,0.3772,0.3744,0.3715,0.367,0.3635,0.3607,0.3564,0.3554,0.3536,0.3528,0.3538,0.354,0.3521,0.3521,0.3516,0.3516,0.3516,0.3516,0,0.4081,0.4046,0.4004,0.3952,0.3938,0.3915,0.3869,0.3844,0.3815,0.3776,0.3765,0.3718,0.3675,0.3636,0.3579,0.3559,0.3515,0.3507,0.353,0.3526,0.3511,0.3512,0.3477,0.3469,0.3485,0.3485,0.3485,0,0.4076,0.4054,0.3999,0.3977,0.3952,0.3917,0.3891,0.3853,0.3827,0.3775,0.3756,0.3711,0.3673,0.3605,0.3564,0.3519,0.3507,0.3498,0.35,0.3509,0.3504,0.3505,0.3501,0.3498,0.3498,0.3498,0.3498,0,0.407,0.4053,0.4018,0.3975,0.3945,0.3909,0.3873,0.3856,0.381,0.3782,0.3738,0.3708,0.3649,0.3603,0.3553,0.3523,0.3502,0.3498,0.3491,0.35,0.3513,0.3503,0.3528,0.3499,0.3499,0.3499,0.3499,0.3499,0.407,0.4048,0.4004,0.3965,0.3933,0.3899,0.3872,0.3839,0.3802,0.3751,0.3731,0.3685,0.3639,0.3569,0.354,0.3501,0.3497,0.3489,0.3486,0.3484,0.3484,0.3521,0.3492,0.3492,0.3492,0.3492,0.3492,0,0.406,0.403,0.3994,0.3944,0.3911,0.3895,0.3853,0.3826,0.3787,0.3747,0.3709,0.3656,0.3611,0.3566,0.3517,0.3494,0.3483,0.3482,0.3483,0.3475,0.3492,0.3501,0.3492,0.3492,0.3492,0.3492,0.3492,0.3492,0.4051,0.4011,0.3988,0.3931,0.39,0.3856,0.3833,0.3799,0.3767,0.3709,0.3672,0.3643,0.3599,0.3546,0.3502,0.349,0.3472,0.3474,0.3458,0.3474,0.3475,0.3475,0.3484,0.3471,0.3471,0.3445,0.3444,0.3444]}]]